Погода в Житомире

Погода в Житомире : погода сейчас, прогноз погоды и архив. Всё, что Вы хотите узнать о погоде в Житомире!

Хотите узнать прогноз погоды в Житомире? Тогда Вам сюда: Погода в Житомире

Поиск расширенной информации на нашем сайте:

Другие новости

Новости СМИ2

Главная страница сайта

Новости сайта

03.07.2017

Напоминаем, что на нашем специализированном сайте Метеоцентр.Азия вы можете получить высокодетализированные автоматические прогнозы погоды по пунктам России, СНГ и мира в авиационном формате (включающие направление и скорость ветра, видимость, явления погоды, количество и форму облачности, нижнюю и верхнюю границу облачности).


Погода в Житомире - сегодня

Время (UTC), дата Ветер
(°,м/с) 
Видим.   Явления Облачность Т
(°С)
Тd
(°С)
f(%) Тe
(°С)
Pmin
(гПа)
dP
(гПа)
Po
(мм)
O2
(г/м3)
Тmin Tmax R s Состояние
почвы
12 16.06.18 030 (СВ) 10 км    9/6 800 м кучево-дожд., средняя, верхняя 
[Cb cap|Ac trans|Ci fib]
+23 +15.4 62 +33  1014.2  0.2  742  272           
15 16.06.18 010 (С) 10 км    8/4 600 м средняя, верхняя 
[Sc|Ac trans|Ci fib]
+22 +14.6 63 +30  1013.9  -0.4  742  274           
18 16.06.18 тихо ()   10 км    3/0 верхняя 
[Ci fib]
+20.4 +14.6 69 +29  1014  742  275    +24.4       
21 16.06.18 тихо ()   10 км    10/0 средняя, верхняя 
[Ac trans|Ci]
+17.2 +14.1 82 +25  1014.8  0.5  742  278           
00 17.06.18 тихо ()   10 км    10/0 средняя, верхняя 
[Ac trans|Cs]
+16.4 +14 86 +24  1014.4  -0.5  742  279           
03 17.06.18 тихо ()   10 км  в посл. час ливневой дождь  10/3 600 м кучево-дожд., средняя 
[Cb cap|Ac As]
+16 +14.3 90 +24  1013.6  -0.8  741  279           
09 17.06.18 030 (СВ) 10 км  {ливн. осадки}  10/6 900 м кучево-дожд., средняя 
[Cb cap|Ac As]
+21.2 +15.9 72 +32  1013.7  0.4  741  274           
12 17.06.18 030 (СВ) 10 км  {ливн. осадки}  8/3 600 м кучево-дожд., средняя, верхняя 
[Cb cap|As trans|Ci fib]
+24.4 +17.9 67 +39  1012.9  -0.5  741  270           
15 17.06.18 030 (СВ) 10 км    8/1 1000 м кучево-дожд., средняя, верхняя 
[Cb cap|Ac trans|Ci]
+26 +17.3 59 +39  1012.1  -0.7  740  269           
18 17.06.18 150 (ЮВ) 10 км  в посл. час ливневой дождь  10/8 800 м кучево-дожд., средняя 
[Cb cap|Ac As]
+24 +16.7 64 +36  1013.4  1.1  741  271    +26.5  0.0     
21 17.06.18 тихо ()   10 км    8/0 средняя 
[Ac trans]
+20.8 +18.1 85 +36  1013.5  -0.1  741  273           
00 18.06.18 тихо ()   4000 м  дымка  3/0 верхняя 
[Ci]
+18.5 +17.5 94 +32  1013.6  -0.1  741  276           
09 18.06.18 050 (СВ) 10 км    8/8 720 м 
[Cu med, cong]
+25.8 +19.3 67 +43  1014.5  0.6  742  269           
12 18.06.18 090 (В) 10 км    6/3 600 м средняя, верхняя 
[Cu med, cong|Ac trans|Ci fib]
+27.4 +17.6 55 +41  1013.9  -0.5  742  268           
00 19.06.18 тихо ()   10 км    8/0 средняя 
[Ac trans]
+19.9 +18 89 +35  1016.4  743  275           
03 19.06.18 тихо ()   10 км    6/0 средняя, верхняя 
[Ac trans|Cc]
+18 +17 94 +31  1016.9  0.3  743  277           
06 19.06.18 280 (З) 10 км    ясно 
+23.4 +17.8 71 +38  1017  0.6  744  272  +17.7         
09 19.06.18 тихо ()   10 км    4/4 1000 м 
[Cu med, cong]
+27.2 +16.5 52 +39  1016.9  0.2  744  269           
12 19.06.18 280 (З) 10 км    4/4 1000 м 
[Cu med, cong]
+29 +16.2 46 +40  1016  -0.7  744  267           
15 19.06.18 280 (З) 10 км    3/3 1000 м 
[Cu med, cong]
+29.4 +15.3 42 +39  1015.1  -0.9  743  267           
18 19.06.18 260 (З) 10 км    3/0 верхняя 
[Ci fib]
+26.4 +15.8 52 +37  1015.8  0.4  743  270    +30       
21 19.06.18 290 (З) 10 км    ясно 
+22.7 +16.7 69 +35  1016.9  0.8  744  273           
00 20.06.18 270 (З) 10 км    ясно 
+20.9 +17 78 +33  1017.9  0.8  744  275           
06 20.06.18 тихо ()   10 км    3/0 средняя, верхняя 
[Ac trans|Ci fib]
+23.6 +13.7 54 +30  1019.4  0.6  746  274  +19.3         
09 20.06.18 310 (СЗ) 10 км    4/4 1000 м 
[Cu med, cong]
+26.2 +12.2 42 +31  1019.4  0.2  746  272           
Время (UTC), дата Ветер
(°,м/с) 
Видим.   Явления Облачность Т
(°С)
Тd
(°С)
f(%) Тe
(°С)
Pmin
(гПа)
dP
(гПа)
Po
(мм)
O2
(г/м3)
Тmin Tmax R s Состояние
почвы

Для получения пояснительной информации подведите курсор к названию столбца.

ПОГОДА в Житомире - архив

Всё, что Вы хотите узнать о погоде в Житомире - удобно и подробно!

Выберите нужную дату (начиная с 1 января 2015* года) и нажмите кнопку "Найти".
Будут отображены архивные сводки погоды по пункту Житомир, начиная с указанной даты.


Отображать данные в формате CSV (для использования в таблицах Excel)


Внимание! Наш архив погоды предназначен исключительно для личного некоммерческого использования в познавательных целях. Если Вам необходимы официальные справки о состоянии погоды (для производственных, юридических, коммерческих и т.п. целей), обращайтесь в органы Росгидромета.

*Примечание: данная дата относится к архиву по метеостанциям СССР (Россия, СНГ, Балтия).
Архив по метеостанциям Зарубежной Европы и Азии (кроме Китая) хранится 10 дней, по другим регионам земного шара (Китай, Африка, Америка, Австралия, Океания) - 1 день.

Житомир - район местоположения метеостанции


Название, широта, долгота, высота метеостанции:
Житомир 50.2°ш. 28.7°д. 224 м над ур. моря [Украина]

Дополнительная информация

В oтличие oт бoльшинства пoгoдных сайтoв мы публикуем пoдрoбную метеoинфoрмацию в детальнoм прoфессиoнальнoм фoрмате.

Характеристики температуры и влажнoсти вoздуха измеряются на высoте 2 м в тени вдали oт зданий и деревьев.
Скoрoсть ветра измеряется на высoте 10 м (на урoвне рoста челoвека скoрoсть ветра ниже в 1.5-2 раза). Если метеoстанция нахoдится в гoрoде или в лесу, тo скoрoсть ветра занижена на 2-4 м/с пo сравнению с oткрытым местoм. Скoрoсть ветра над акватoриями крупных рек и oзёр, а также на вершинах хoлмoв на 2-5 м/с выше, чем в oбычных услoвиях.
Атмoсфернoе давление в разных тoчках местнoсти мoжет значительнo oтличаться oт давления на метеoстанции, в зависимoсти oт услoвий рельефа (при пoдъёме на 10 м давление пoнижается примернo на 1 мм рт.ст.).